Weather History for Florala, AL

Change the Weather History Date:

Wednesday, November 21, 2012

  Actual Average (KCEW) Record (KCEW)
Temperature  
Mean Temperature 60 °F -  
Max Temperature 73 °F 69 °F 82 °F (2011)
Min Temperature 48 °F 44 °F 23 °F (2000)
Degree Days  
Heating Degree Days 4    
Growing Degree Days 10 (Base 50)    
Moisture  
Dew Point 48 °F    
Average Humidity 72    
Maximum Humidity 93    
Minimum Humidity 38    
Precipitation  
Precipitation 0.00 in - - ()
Sea Level Pressure  
Sea Level Pressure 30.15 in    
Wind  
Wind Speed 2 mph (North)    
Max Wind Speed 8 mph    
Max Gust Speed -    
Visibility 10 miles    
Events      
Averages and records for this station are not official NWS values.
T = Trace of Precipitation, MM = Missing Value Source: NWS Daily Summary

Daily Weather History Graph

Daily Weather History Graph

Search for Another Location

Airport:

Trip Planner

Search our weather history database for the weather conditions in past years. The results will help you decide how hot, cold, wet, or windy it might be!

Date:

Astronomy

Nov. 21, 2012 Rise Set
Actual Time 6:17 AM CST 4:44 PM CST
Civil Twilight 5:51 AM CST 5:10 PM CST
Nautical Twilight 5:22 AM CST 5:39 PM CST
Astronomical Twilight 4:53 AM CST 6:08 PM CST
Moon 12:38 PM CST 12:00 AM CST
Length of Visible Light 11h 18m
Length of Day
10h 26m
First Quarter, 62% of the Moon is Illuminated
Nov 21
First Quarter
Nov 28
Full
Dec 6
Last Quarter
Dec 13
New
Dec 19
First Quarter

Hourly Weather History & Observations

Time (CST) Temp. Dew Point Humidity Pressure Visibility Wind Dir Wind Speed Gust Speed Precip Events Conditions
12:58 AM 52.0 °F 48.9 °F 89% 30.13 in 10.0 mi NNW 3.5 mph - N/A   Clear
1:58 AM 51.1 °F 48.0 °F 89% 30.13 in 10.0 mi Calm Calm - N/A   Clear
2:58 AM 50.0 °F 46.9 °F 89% 30.13 in 10.0 mi Calm Calm - N/A   Clear
3:58 AM 48.0 °F 46.0 °F 93% 30.14 in 8.0 mi Calm Calm - N/A   Clear
4:58 AM 50.0 °F 46.9 °F 89% 30.14 in 10.0 mi Calm Calm - N/A   Clear
5:58 AM 48.0 °F 46.0 °F 93% 30.15 in 10.0 mi Calm Calm - N/A   Clear
6:58 AM 50.0 °F 46.0 °F 86% 30.17 in 10.0 mi NNW 3.5 mph - N/A   Clear
7:58 AM 55.9 °F 46.9 °F 72% 30.19 in 10.0 mi NNW 3.5 mph - N/A   Clear
8:58 AM 61.0 °F 48.9 °F 64% 30.19 in 10.0 mi Variable 4.6 mph - N/A   Clear
9:58 AM 66.9 °F 48.9 °F 52% 30.18 in 10.0 mi North 4.6 mph - N/A   Clear
10:58 AM 71.1 °F 50.0 °F 47% 30.17 in 10.0 mi NNE 8.1 mph - N/A   Clear
11:58 AM 73.0 °F 48.9 °F 42% 30.14 in 10.0 mi North 8.1 mph - N/A   Clear
12:58 PM 72.0 °F 48.0 °F 43% 30.12 in 10.0 mi Variable 4.6 mph - N/A   Partly Cloudy
1:58 PM 73.9 °F 46.9 °F 38% 30.11 in 10.0 mi North 4.6 mph - N/A   Scattered Clouds
2:58 PM 72.0 °F 48.0 °F 43% 30.11 in 10.0 mi Calm Calm - N/A   Partly Cloudy
3:58 PM 70.0 °F 48.9 °F 47% 30.11 in 10.0 mi North 3.5 mph - N/A   Clear
4:58 PM 63.0 °F 50.0 °F 63% 30.13 in 10.0 mi Calm Calm - N/A   Clear
5:58 PM 57.0 °F 50.0 °F 77% 30.14 in 10.0 mi Calm Calm - N/A   Clear
6:58 PM 55.0 °F 48.9 °F 80% 30.16 in 10.0 mi Calm Calm - N/A   Clear
7:58 PM 53.1 °F 48.0 °F 83% 30.17 in 10.0 mi Calm Calm - N/A   Clear
8:58 PM 51.1 °F 46.9 °F 86% 30.18 in 10.0 mi Calm Calm - N/A   Clear
9:58 PM 50.0 °F 46.0 °F 86% 30.18 in 10.0 mi Calm Calm - N/A   Clear
10:58 PM 48.9 °F 46.0 °F 90% 30.18 in 10.0 mi Calm Calm - N/A   Clear
11:58 PM 48.9 °F 46.0 °F 90% 30.18 in 10.0 mi Calm Calm - N/A   Clear